TimePST,TemperatureF,Dew PointF,Humidity,Sea Level PressureIn,VisibilityMPH,Wind Direction,Wind SpeedMPH,Gust SpeedMPH,PrecipitationIn,Events,Conditions,WindDirDegrees,DateUTC
12:55 AM,27.0,23.0,85,30.01,10.0,Calm,Calm,-,N/A,,Overcast,0,2013-03-07 08:55:00
1:55 AM,28.0,24.1,85,30.01,10.0,Calm,Calm,-,N/A,,Overcast,0,2013-03-07 09:55:00
2:55 AM,25.0,21.9,88,30.00,10.0,Variable,4.6,-,N/A,,Mostly Cloudy,0,2013-03-07 10:55:00
3:55 AM,21.9,18.0,85,30.00,10.0,Calm,Calm,-,N/A,,Clear,0,2013-03-07 11:55:00
4:55 AM,19.9,17.1,89,30.01,10.0,Calm,Calm,-,N/A,,Clear,0,2013-03-07 12:55:00
5:55 AM,17.1,15.1,92,30.03,4.0,ENE,3.5,-,N/A,,Clear,60,2013-03-07 13:55:00
6:55 AM,17.1,14.0,88,30.04,10.0,SSE,5.8,-,N/A,,Clear,160,2013-03-07 14:55:00
7:55 AM,21.9,19.0,89,30.04,10.0,Calm,Calm,-,N/A,,Overcast,0,2013-03-07 15:55:00
8:55 AM,27.0,21.9,81,30.01,10.0,Calm,Calm,-,N/A,,Mostly Cloudy,0,2013-03-07 16:55:00
9:55 AM,34.0,21.9,61,29.99,10.0,Calm,Calm,-,N/A,,Clear,0,2013-03-07 17:55:00
10:55 AM,37.0,21.9,54,29.97,10.0,Calm,Calm,-,N/A,,Partly Cloudy,0,2013-03-07 18:55:00
11:55 AM,39.0,21.9,50,29.94,10.0,Calm,Calm,-,N/A,,Overcast,0,2013-03-07 19:55:00
12:55 PM,39.9,23.0,51,29.91,10.0,Calm,Calm,-,N/A,,Mostly Cloudy,0,2013-03-07 20:55:00
1:55 PM,43.0,23.0,45,29.88,10.0,Variable,4.6,-,N/A,,Mostly Cloudy,0,2013-03-07 21:55:00
2:55 PM,43.0,21.9,43,29.88,10.0,ENE,3.5,-,N/A,,Overcast,60,2013-03-07 22:55:00
3:55 PM,42.1,21.0,43,29.89,10.0,Calm,Calm,-,N/A,,Overcast,0,2013-03-07 23:55:00
4:55 PM,41.0,21.0,45,29.90,10.0,ENE,6.9,-,N/A,,Overcast,60,2013-03-08 00:55:00
5:55 PM,37.9,27.0,65,29.93,10.0,North,9.2,-,N/A,,Overcast,10,2013-03-08 01:55:00
6:55 PM,36.0,27.0,70,29.95,10.0,NNE,4.6,-,N/A,,Overcast,30,2013-03-08 02:55:00
7:55 PM,36.0,27.0,70,29.94,10.0,NNE,4.6,-,N/A,,Overcast,20,2013-03-08 03:55:00
8:55 PM,33.1,28.0,82,29.94,10.0,Calm,Calm,-,N/A,,Overcast,0,2013-03-08 04:55:00
9:55 PM,33.1,28.0,82,29.92,10.0,West,3.5,-,N/A,,Overcast,270,2013-03-08 05:55:00
10:55 PM,30.9,26.1,82,29.91,10.0,Calm,Calm,-,N/A,,Clear,0,2013-03-08 06:55:00
11:55 PM,27.0,25.0,92,29.92,10.0,Calm,Calm,-,N/A,,Clear,0,2013-03-08 07:55:00